Flag for U.S.A. Weather past 2 weeks in Lakewood, Colorado, U.S.A.

Now
50 °F

Passing clouds.


Feels Like: 46 °F
Forecast: 50 / 64 °F
Wind: 9 mph from Southeast

Location: Centennial Airport


UV Index: 0 (Low)

Visibility: 10 mi


Pressure: 29.78 "Hg

Humidity: 44%

Dew point: 29 °F

Location of LakewoodLocation

Historic Weather in Lakewood

°F

Lakewood temperature yesterday

Maximum temperature yesterday: 76 °F (at 1:53 PM)
Minimum temperature yesterday: 42 °F (at 1:53 AM)
Average temperature yesterday: 60 °F

Past Weeks' High & Low Weather Summary

 TemperatureHumidityPressure
High76 °F (Apr 11, 3:53 PM)92% (Apr 7, 6:53 AM)30.46 "Hg (Apr 7, 6:53 AM)
Low18 °F (Apr 14, 4:53 AM)7% (Apr 11, 4:53 PM)29.54 "Hg (Apr 12, 6:53 PM)
Average46 °F46%29.95 "Hg
* Reported Apr 3 11:53 PM — Apr 18 11:53 PM, Lakewood, Weather by CustomWeather, © 2014

Note: Actual official high and low records may vary slightly from our data, if they occured in-between our weather recording intervals... More about our weather records

Advertising

Historic Weather Conditions — Data for Previous 24 hours

 ConditionsComfort  
Time TempWeatherWind HumidityBarometerVisibility
11:53 PM
Apr 18
54 °FPassing clouds.3 mph38%29.77 "Hg10 mi
10:53 PM55 °FPassing clouds.7 mph35%29.77 "Hg10 mi
9:53 PM58 °FPartly cloudy.6 mph35%29.77 "Hg10 mi
8:53 PM63 °FMostly cloudy.5 mph29%29.77 "Hg10 mi
7:53 PM66 °FBroken clouds.7 mph24%29.75 "Hg10 mi
6:53 PM68 °FBroken clouds.12 mph21%29.74 "Hg10 mi
5:53 PM73 °FBroken clouds.18 mph17%29.72 "Hg10 mi
4:53 PM76 °FBroken clouds.8 mph14%29.71 "Hg10 mi
3:53 PM76 °FBroken clouds.10 mph13%29.71 "Hg10 mi
2:53 PM76 °FScattered clouds.8 mph14%29.75 "Hg10 mi
1:53 PM76 °FScattered clouds.12 mph14%29.79 "Hg10 mi
12:53 PM75 °FPartly sunny.8 mph14%29.81 "Hg10 mi
11:53 AM72 °FBroken clouds.3 mph17%29.85 "Hg10 mi
10:53 AM69 °FBroken clouds.5 mph17%29.88 "Hg10 mi
9:53 AM67 °FBroken clouds.7 mph21%29.88 "Hg10 mi
8:53 AM61 °FPassing clouds.7 mph29%29.90 "Hg10 mi
7:53 AM53 °FPassing clouds.7 mph37%29.94 "Hg10 mi
6:53 AM47 °FPartly cloudy.6 mph42%29.94 "Hg10 mi
5:53 AM43 °FPassing clouds.8 mph49%29.94 "Hg10 mi
4:53 AM42 °FClear.8 mph51%29.94 "Hg10 mi
3:53 AM43 °FClear.8 mph53%29.94 "Hg10 mi
2:53 AM42 °FClear.6 mph57%29.95 "Hg10 mi
1:53 AM42 °FClear.9 mph65%29.96 "Hg10 mi
Weather by CustomWeather, © 2014

See weather overview